Time,TemperatureF,DewpointF,PressureIn,WindDirection,WindDirectionDegrees,WindSpeedMPH,WindSpeedGustMPH,Humidity,HourlyPrecipIn,Conditions,Clouds,dailyrainin,SoftwareType,DateUTC
2013-05-22 00:01:00,60.0,27.0,-100.00,NE,45,3.0,8.0,28,-99.99,,,0.00,,2013-05-22 06:01:00,
2013-05-22 00:11:00,60.0,27.0,-100.00,NE,45,3.0,8.0,28,-99.99,,,0.00,,2013-05-22 06:11:00,
2013-05-22 00:52:00,59.0,28.0,-100.00,North,-999,0.0,0.0,31,-99.99,,,0.00,,2013-05-22 06:52:00,
2013-05-22 01:01:00,59.0,28.0,-100.00,North,-999,0.0,0.0,31,-99.99,,,0.00,,2013-05-22 07:01:00,
2013-05-22 01:11:00,59.0,29.0,-100.00,ENE,75,6.0,8.0,32,-99.99,,,0.00,,2013-05-22 07:11:00,
2013-05-22 01:21:00,59.0,29.0,-100.00,ENE,75,6.0,8.0,32,-99.99,,,0.00,,2013-05-22 07:21:00,
2013-05-22 01:31:00,58.0,29.0,-100.00,NW,305,6.0,9.0,33,-99.99,,,0.00,,2013-05-22 07:31:00,
2013-05-22 01:41:00,58.0,29.0,-100.00,NW,305,6.0,9.0,33,-99.99,,,0.00,,2013-05-22 07:41:00,
2013-05-22 01:52:00,57.0,29.0,-100.00,North,-999,0.0,0.0,34,-99.99,,,0.00,,2013-05-22 07:52:00,
2013-05-22 02:02:00,57.0,29.0,-100.00,North,-999,0.0,0.0,34,-99.99,,,0.00,,2013-05-22 08:02:00,
2013-05-22 02:11:00,55.0,30.0,-100.00,North,-999,0.0,0.0,38,-99.99,,,0.00,,2013-05-22 08:11:00,
2013-05-22 02:22:00,55.0,30.0,-100.00,North,-999,0.0,0.0,38,-99.99,,,0.00,,2013-05-22 08:22:00,
2013-05-22 02:31:00,54.0,31.0,-100.00,SW,235,0.0,3.0,41,-99.99,,,0.00,,2013-05-22 08:31:00,
2013-05-22 02:41:00,54.0,31.0,-100.00,SW,235,0.0,3.0,41,-99.99,,,0.00,,2013-05-22 08:41:00,
2013-05-22 02:51:00,51.0,32.0,-100.00,North,-999,0.0,0.0,48,-99.99,,,0.00,,2013-05-22 08:51:00,
2013-05-22 03:01:00,51.0,32.0,-100.00,North,-999,0.0,0.0,48,-99.99,,,0.00,,2013-05-22 09:01:00,
2013-05-22 03:11:00,50.0,33.0,-100.00,North,-999,0.0,0.0,53,-99.99,,,0.00,,2013-05-22 09:11:00,
2013-05-22 03:21:00,50.0,33.0,-100.00,North,-999,0.0,0.0,53,-99.99,,,0.00,,2013-05-22 09:21:00,
2013-05-22 03:32:00,50.0,34.0,-100.00,North,-999,0.0,0.0,55,-99.99,,,0.00,,2013-05-22 09:32:00,
2013-05-22 03:42:00,50.0,34.0,-100.00,North,-999,0.0,0.0,55,-99.99,,,0.00,,2013-05-22 09:42:00,
2013-05-22 03:53:00,50.0,35.0,-100.00,NE,50,0.0,1.0,57,-99.99,,,0.00,,2013-05-22 09:53:00,
2013-05-22 04:02:00,50.0,35.0,-100.00,NE,50,0.0,1.0,57,-99.99,,,0.00,,2013-05-22 10:02:00,
2013-05-22 04:33:00,48.0,38.0,-100.00,North,-999,0.0,0.0,68,-99.99,,,0.00,,2013-05-22 10:33:00,
2013-05-22 04:42:00,48.0,38.0,-100.00,North,-999,0.0,0.0,68,-99.99,,,0.00,,2013-05-22 10:42:00,
2013-05-22 04:52:00,47.0,38.0,-100.00,WSW,240,1.0,3.0,71,-99.99,,,0.00,,2013-05-22 10:52:00,
2013-05-22 05:02:00,47.0,38.0,-100.00,WSW,240,1.0,3.0,71,-99.99,,,0.00,,2013-05-22 11:02:00,
2013-05-22 05:11:00,48.0,38.0,-100.00,SSW,195,4.0,6.0,69,-99.99,,,0.00,,2013-05-22 11:11:00,
2013-05-22 05:21:00,48.0,38.0,-100.00,SSW,195,4.0,6.0,69,-99.99,,,0.00,,2013-05-22 11:21:00,
2013-05-22 05:32:00,47.0,38.0,-100.00,North,-999,0.0,0.0,70,-99.99,,,0.00,,2013-05-22 11:32:00,
2013-05-22 05:41:00,47.0,38.0,-100.00,North,-999,0.0,0.0,70,-99.99,,,0.00,,2013-05-22 11:41:00,
2013-05-22 05:52:00,47.0,38.0,-100.00,North,-999,0.0,0.0,71,-99.99,,,0.00,,2013-05-22 11:52:00,
2013-05-22 06:02:00,47.0,38.0,-100.00,North,-999,0.0,0.0,71,-99.99,,,0.00,,2013-05-22 12:02:00,
2013-05-22 06:12:00,48.0,38.0,-100.00,North,-999,0.0,0.0,69,-99.99,,,0.00,,2013-05-22 12:12:00,
2013-05-22 06:22:00,48.0,38.0,-100.00,North,-999,0.0,0.0,69,-99.99,,,0.00,,2013-05-22 12:22:00,
2013-05-22 06:32:00,49.0,37.0,-100.00,SSW,205,0.0,3.0,62,-99.99,,,0.00,,2013-05-22 12:32:00,
2013-05-22 06:42:00,49.0,37.0,-100.00,SSW,205,0.0,3.0,62,-99.99,,,0.00,,2013-05-22 12:42:00,
2013-05-22 06:52:00,48.0,37.0,-100.00,North,-999,0.0,0.0,65,-99.99,,,0.00,,2013-05-22 12:52:00,
2013-05-22 07:01:00,48.0,37.0,-100.00,North,-999,0.0,0.0,65,-99.99,,,0.00,,2013-05-22 13:01:00,
2013-05-22 07:11:00,47.0,37.0,-100.00,SSW,205,1.0,4.0,68,-99.99,,,0.00,,2013-05-22 13:11:00,
2013-05-22 07:22:00,47.0,37.0,-100.00,SSW,205,1.0,4.0,68,-99.99,,,0.00,,2013-05-22 13:22:00,
2013-05-22 07:31:00,47.0,37.0,-100.00,SSW,205,1.0,4.0,68,-99.99,,,0.00,,2013-05-22 13:31:00,
2013-05-22 07:41:00,47.0,37.0,-100.00,SSW,205,1.0,4.0,68,-99.99,,,0.00,,2013-05-22 13:41:00,
2013-05-22 07:52:00,49.0,37.0,-100.00,SSW,200,5.0,8.0,64,-99.99,,,0.00,,2013-05-22 13:52:00,
2013-05-22 08:02:00,49.0,37.0,-100.00,SSW,200,5.0,8.0,64,-99.99,,,0.00,,2013-05-22 14:02:00,
2013-05-22 08:11:00,50.0,37.0,-100.00,SSW,200,8.0,9.0,61,-99.99,,,0.00,,2013-05-22 14:11:00,
2013-05-22 08:21:00,50.0,37.0,-100.00,SSW,200,8.0,9.0,61,-99.99,,,0.00,,2013-05-22 14:21:00,
2013-05-22 08:32:00,51.0,38.0,-100.00,SSW,200,6.0,9.0,62,-99.99,,,-99.99,,2013-05-22 14:32:00,
2013-05-22 08:41:00,51.0,38.0,-100.00,SSW,200,6.0,9.0,62,-99.99,,,-99.99,,2013-05-22 14:41:00,
2013-05-22 08:52:00,50.0,38.0,-100.00,SSW,195,9.0,11.0,62,-99.99,,,-99.99,,2013-05-22 14:52:00,
2013-05-22 09:01:00,50.0,38.0,-100.00,SSW,195,9.0,11.0,62,-99.99,,,-99.99,,2013-05-22 15:01:00,
2013-05-22 09:11:00,51.0,39.0,-100.00,SW,220,7.0,9.0,62,-99.99,,,-99.99,,2013-05-22 15:11:00,
2013-05-22 09:21:00,51.0,39.0,-100.00,SW,220,7.0,9.0,62,-99.99,,,-99.99,,2013-05-22 15:21:00,
2013-05-22 09:32:00,52.0,39.0,-100.00,SSW,205,6.0,7.0,61,-99.99,,,-99.99,,2013-05-22 15:32:00,
2013-05-22 09:42:00,52.0,39.0,-100.00,SSW,205,6.0,7.0,61,-99.99,,,-99.99,,2013-05-22 15:42:00,
2013-05-22 09:53:00,52.0,39.0,-100.00,SSW,205,6.0,7.0,61,-99.99,,,-99.99,,2013-05-22 15:53:00,
2013-05-22 10:00:00,53.0,40.0,-100.00,South,190,6.0,8.0,61,-99.99,,,-99.99,,2013-05-22 16:00:00,
2013-05-22 10:12:00,53.0,40.0,-100.00,South,185,10.0,11.0,61,-99.99,,,-99.99,,2013-05-22 16:12:00,
2013-05-22 10:23:00,53.0,40.0,-100.00,South,185,10.0,11.0,61,-99.99,,,-99.99,,2013-05-22 16:23:00,
2013-05-22 10:32:00,53.0,40.0,-100.00,South,190,6.0,8.0,61,-99.99,,,-99.99,,2013-05-22 16:32:00,
2013-05-22 10:42:00,53.0,40.0,-100.00,South,190,6.0,8.0,61,-99.99,,,-99.99,,2013-05-22 16:42:00,
2013-05-22 10:52:00,53.0,40.0,-100.00,South,190,6.0,8.0,61,-99.99,,,-99.99,,2013-05-22 16:52:00,
2013-05-22 11:11:00,55.0,40.0,-100.00,North,-999,0.0,0.0,57,-99.99,,,-99.99,,2013-05-22 17:11:00,
2013-05-22 11:22:00,55.0,40.0,-100.00,North,-999,0.0,0.0,57,-99.99,,,-99.99,,2013-05-22 17:22:00,
2013-05-22 11:32:00,54.0,39.0,-100.00,South,185,3.0,5.0,57,-99.99,,,-99.99,,2013-05-22 17:32:00,
2013-05-22 11:42:00,54.0,39.0,-100.00,South,185,3.0,5.0,57,-99.99,,,-99.99,,2013-05-22 17:42:00,
2013-05-22 11:53:00,54.0,40.0,-100.00,SW,220,2.0,3.0,58,-99.99,,,-99.99,,2013-05-22 17:53:00,
2013-05-22 12:02:00,54.0,40.0,-100.00,SW,220,2.0,3.0,58,-99.99,,,-99.99,,2013-05-22 18:02:00,
2013-05-22 12:14:00,54.0,41.0,-100.00,North,-999,0.0,0.0,61,-99.99,,,-99.99,,2013-05-22 18:14:00,
2013-05-22 12:22:00,54.0,41.0,-100.00,North,-999,0.0,0.0,61,-99.99,,,-99.99,,2013-05-22 18:22:00,
2013-05-22 12:33:00,53.0,41.0,-100.00,NW,320,5.0,8.0,62,-99.99,,,-99.99,,2013-05-22 18:33:00,
2013-05-22 12:42:00,53.0,41.0,-100.00,NW,320,5.0,8.0,62,-99.99,,,-99.99,,2013-05-22 18:42:00,
2013-05-22 12:52:00,55.0,41.0,-100.00,North,10,0.0,2.0,59,-99.99,,,0.00,,2013-05-22 18:52:00,
2013-05-22 13:02:00,55.0,41.0,-100.00,North,10,0.0,2.0,59,-99.99,,,0.00,,2013-05-22 19:02:00,
2013-05-22 13:11:00,55.0,41.0,-100.00,SSW,200,0.0,2.0,58,-99.99,,,0.00,,2013-05-22 19:11:00,
2013-05-22 13:21:00,55.0,41.0,-100.00,SSW,200,0.0,2.0,58,-99.99,,,0.00,,2013-05-22 19:21:00,
2013-05-22 13:32:00,55.0,41.0,-100.00,SW,215,0.0,1.0,58,-99.99,,,0.00,,2013-05-22 19:32:00,
2013-05-22 13:41:00,55.0,41.0,-100.00,SW,215,0.0,1.0,58,-99.99,,,0.00,,2013-05-22 19:41:00,
2013-05-22 13:52:00,56.0,41.0,-100.00,NE,50,0.0,2.0,59,-99.99,,,0.00,,2013-05-22 19:52:00,
2013-05-22 14:02:00,56.0,41.0,-100.00,NE,50,0.0,2.0,59,-99.99,,,0.00,,2013-05-22 20:02:00,
2013-05-22 14:11:00,57.0,41.0,-100.00,North,10,4.0,7.0,54,-99.99,,,-99.99,,2013-05-22 20:11:00,
2013-05-22 14:21:00,57.0,41.0,-100.00,North,10,4.0,7.0,54,-99.99,,,-99.99,,2013-05-22 20:21:00,
2013-05-22 14:32:00,57.0,40.0,-100.00,SW,230,4.0,7.0,54,-99.99,,,-99.99,,2013-05-22 20:32:00,
2013-05-22 14:41:00,57.0,40.0,-100.00,SW,230,4.0,7.0,54,-99.99,,,-99.99,,2013-05-22 20:41:00,
2013-05-22 14:51:00,57.0,39.0,-100.00,NNW,340,14.0,18.0,51,-99.99,,,0.00,,2013-05-22 20:51:00,
2013-05-22 15:01:00,57.0,39.0,-100.00,NNW,340,14.0,18.0,51,-99.99,,,0.00,,2013-05-22 21:01:00,
2013-05-22 15:11:00,56.0,38.0,-100.00,North,350,11.0,14.0,51,-99.99,,,0.00,,2013-05-22 21:11:00,
2013-05-22 15:20:00,57.0,38.0,-100.00,NE,35,22.0,24.0,49,-99.99,,,0.00,,2013-05-22 21:20:00,
2013-05-22 15:21:00,56.0,38.0,-100.00,North,350,11.0,14.0,51,-99.99,,,0.00,,2013-05-22 21:21:00,
2013-05-22 15:32:00,56.0,38.0,-100.00,NNW,345,11.0,16.0,50,-99.99,,,0.00,,2013-05-22 21:32:00,
2013-05-22 15:42:00,56.0,38.0,-100.00,NNW,345,11.0,16.0,50,-99.99,,,0.00,,2013-05-22 21:42:00,
2013-05-22 15:52:00,57.0,38.0,-100.00,NE,35,22.0,24.0,49,-99.99,,,0.00,,2013-05-22 21:52:00,
2013-05-22 16:03:00,57.0,38.0,-100.00,NE,35,22.0,24.0,49,-99.99,,,0.00,,2013-05-22 22:03:00,
2013-05-22 16:12:00,57.0,38.0,-100.00,NE,35,22.0,24.0,49,-99.99,,,0.00,,2013-05-22 22:12:00,
2013-05-22 16:42:00,57.0,39.0,-100.00,NNW,335,4.0,6.0,50,-99.99,,,0.00,,2013-05-22 22:42:00,
2013-05-22 16:52:00,58.0,39.0,-100.00,North,-999,0.0,0.0,50,-99.99,,,0.00,,2013-05-22 22:52:00,
2013-05-22 17:02:00,58.0,39.0,-100.00,North,-999,0.0,0.0,50,-99.99,,,0.00,,2013-05-22 23:02:00,
2013-05-22 17:12:00,58.0,39.0,-100.00,NNW,330,2.0,5.0,49,-99.99,,,0.00,,2013-05-22 23:12:00,
2013-05-22 17:20:00,59.0,40.0,-100.00,North,-999,0.0,0.0,48,-99.99,,,0.00,,2013-05-22 23:20:00,
2013-05-22 17:21:00,58.0,39.0,-100.00,NNW,330,2.0,5.0,49,-99.99,,,0.00,,2013-05-22 23:21:00,
2013-05-22 17:32:00,59.0,39.0,-100.00,NNW,340,9.0,11.0,49,-99.99,,,0.00,,2013-05-22 23:32:00,
2013-05-22 17:42:00,59.0,39.0,-100.00,NNW,340,9.0,11.0,49,-99.99,,,0.00,,2013-05-22 23:42:00,
2013-05-22 17:52:00,59.0,40.0,-100.00,North,-999,0.0,0.0,48,-99.99,,,0.00,,2013-05-22 23:52:00,
2013-05-22 18:01:00,59.0,40.0,-100.00,North,-999,0.0,0.0,48,-99.99,,,0.00,,2013-05-23 00:01:00,
2013-05-22 18:11:00,59.0,40.0,-100.00,North,-999,0.0,0.0,48,-99.99,,,0.00,,2013-05-23 00:11:00,
2013-05-22 18:31:00,59.0,40.0,-100.00,North,350,0.0,3.0,49,-99.99,,,0.00,,2013-05-23 00:31:00,
2013-05-22 18:42:00,59.0,40.0,-100.00,North,350,0.0,3.0,49,-99.99,,,0.00,,2013-05-23 00:42:00,
2013-05-22 19:11:00,61.0,41.0,-100.00,NE,50,4.0,12.0,47,-99.99,,,0.00,,2013-05-23 01:11:00,
2013-05-22 19:21:00,61.0,41.0,-100.00,NE,50,4.0,12.0,47,-99.99,,,0.00,,2013-05-23 01:21:00,
2013-05-22 19:32:00,60.0,40.0,-100.00,NNE,20,3.0,6.0,48,-99.99,,,0.00,,2013-05-23 01:32:00,
2013-05-22 19:42:00,60.0,40.0,-100.00,NNE,20,3.0,6.0,48,-99.99,,,0.00,,2013-05-23 01:42:00,
2013-05-22 19:50:00,59.0,40.0,-100.00,East,80,0.0,3.0,49,-99.99,,,0.00,,2013-05-23 01:50:00,
2013-05-22 19:52:00,60.0,40.0,-100.00,WSW,240,1.0,4.0,48,-99.99,,,-99.99,,2013-05-23 01:52:00,
2013-05-22 20:01:00,60.0,40.0,-100.00,WSW,240,1.0,4.0,48,-99.99,,,-99.99,,2013-05-23 02:01:00,
2013-05-22 20:11:00,59.0,40.0,-100.00,NW,305,1.0,3.0,49,-99.99,,,0.00,,2013-05-23 02:11:00,
2013-05-22 20:21:00,59.0,40.0,-100.00,NW,305,1.0,3.0,49,-99.99,,,0.00,,2013-05-23 02:21:00,
2013-05-22 20:31:00,59.0,40.0,-100.00,East,80,0.0,3.0,49,-99.99,,,0.00,,2013-05-23 02:31:00,
2013-05-22 20:42:00,59.0,40.0,-100.00,East,80,0.0,3.0,49,-99.99,,,0.00,,2013-05-23 02:42:00,
2013-05-22 21:01:00,59.0,41.0,-100.00,SSW,195,6.0,7.0,51,-99.99,,,0.00,,2013-05-23 03:01:00,
2013-05-22 21:11:00,59.0,41.0,-100.00,WNW,285,1.0,7.0,52,-99.99,,,0.00,,2013-05-23 03:11:00,
2013-05-22 21:21:00,59.0,41.0,-100.00,WNW,285,1.0,7.0,52,-99.99,,,0.00,,2013-05-23 03:21:00,
2013-05-22 21:33:00,57.0,42.0,-100.00,NE,50,4.0,6.0,57,-99.99,,,-99.99,,2013-05-23 03:33:00,
2013-05-22 21:43:00,57.0,42.0,-100.00,NE,50,4.0,6.0,57,-99.99,,,-99.99,,2013-05-23 03:43:00,
2013-05-22 21:53:00,57.0,43.0,-100.00,North,-999,0.0,0.0,58,-99.99,,,0.00,,2013-05-23 03:53:00,
2013-05-22 22:02:00,57.0,43.0,-100.00,North,-999,0.0,0.0,58,-99.99,,,0.00,,2013-05-23 04:02:00,
2013-05-22 22:12:00,57.0,43.0,-100.00,North,-999,0.0,0.0,59,-99.99,,,0.00,,2013-05-23 04:12:00,
2013-05-22 22:22:00,57.0,43.0,-100.00,North,-999,0.0,0.0,59,-99.99,,,0.00,,2013-05-23 04:22:00,
2013-05-22 22:33:00,57.0,43.0,-100.00,NNE,20,4.0,6.0,61,-99.99,,,0.00,,2013-05-23 04:33:00,
2013-05-22 22:42:00,57.0,43.0,-100.00,NNE,20,4.0,6.0,61,-99.99,,,0.00,,2013-05-23 04:42:00,
2013-05-22 22:52:00,56.0,44.0,-100.00,NE,40,7.0,9.0,62,-99.99,,,0.00,,2013-05-23 04:52:00,
2013-05-22 23:02:00,56.0,44.0,-100.00,NE,40,7.0,9.0,62,-99.99,,,0.00,,2013-05-23 05:02:00,
2013-05-22 23:11:00,56.0,45.0,-100.00,NE,45,3.0,5.0,66,-99.99,,,0.00,,2013-05-23 05:11:00,
2013-05-22 23:22:00,56.0,45.0,-100.00,NE,45,3.0,5.0,66,-99.99,,,0.00,,2013-05-23 05:22:00,
2013-05-22 23:32:00,53.0,48.0,-100.00,North,-999,0.0,0.0,82,-99.99,,,0.00,,2013-05-23 05:32:00,
2013-05-22 23:43:00,53.0,48.0,-100.00,North,-999,0.0,0.0,82,-99.99,,,0.00,,2013-05-23 05:43:00,
2013-05-22 23:52:00,53.0,48.0,-100.00,North,-999,0.0,0.0,82,-99.99,,,0.00,,2013-05-23 05:52:00,